{"data":{"norad_id":27606,"epoch":"2026-05-24T19:09:04.849920Z","epoch_age_seconds":82668,"freshness":"FRESH","line1":"1 27606U 02058B   26144.79797280  .00000365  00000+0  68939-4 0  9994","line2":"2 27606  64.5545 322.3639 0087310 274.5121  84.6012 14.76987621258648","mean_motion":14.76987621,"eccentricity":0.008731,"inclination_deg":64.5545,"raan_deg":322.3639,"arg_perigee_deg":274.5121,"mean_anomaly_deg":84.6012,"bstar":6.8939e-5,"rev_number":25864,"period_min":97.495739268623,"perigee_km":577.58360471206,"apogee_km":700.11421264945,"semimajor_km":7016.9859086808,"source":"CELESTRAK","updated_at":"2026-05-25T13:37:55.030395Z"}}